Date,TemperatureHighF,TemperatureAvgF,TemperatureLowF,DewpointHighF,DewpointAvgF,DewpointLowF,HumidityHigh,HumidityAvg,HumidityLow,PressureMaxIn,PressureMinIn,WindSpeedMaxMPH,WindSpeedAvgMPH,GustSpeedMaxMPH,PrecipitationSumIn
2013-8-1,83,72,63,66,62,60,92,74,49,30.03,29.86,6,1,11,0.00
2013-8-2,84,73,64,68,63,59,95,74,44,29.87,29.77,4,1,9,0.37
2013-8-3,81,72,64,65,62,61,91,74,51,29.85,29.76,6,1,12,0.00
2013-8-4,82,70,59,60,57,55,86,66,41,29.88,29.75,6,1,10,0.00
2013-8-5,78,66,56,55,49,43,86,58,29,30.03,29.87,5,1,9,0.00
2013-8-6,81,66,51,55,52,48,92,64,36,30.13,30.03,5,0,7,0.00
2013-8-7,82,69,55,61,55,50,95,65,35,30.17,30.09,7,1,11,0.00
2013-8-8,81,72,66,72,66,55,92,81,68,30.11,29.99,7,1,9,0.07
2013-8-9,76,73,72,74,71,69,96,93,88,30.01,29.73,4,1,13,1.51
2013-8-10,86,75,64,71,62,54,96,68,40,29.99,29.77,6,1,14,0.01
2013-8-11,82,70,54,59,55,52,94,63,39,30.07,29.98,4,1,8,0.00
2013-8-12,84,72,60,63,59,55,92,67,41,30.01,29.90,6,1,7,0.00
2013-8-13,77,70,65,67,64,61,90,82,61,29.91,29.67,4,0,6,0.00
2013-8-14,76,67,60,63,55,51,93,67,45,29.95,29.65,10,1,16,0.00
2013-8-15,78,66,54,55,52,49,89,64,39,30.09,29.95,6,1,10,0.00
2013-8-16,81,68,54,58,55,51,93,66,37,30.18,30.09,10,1,12,0.00
2013-8-17,80,69,56,61,57,54,94,69,46,30.26,30.18,5,0,8,0.00
2013-8-18,80,70,59,65,60,57,93,72,47,30.25,30.07,3,0,7,0.00
2013-8-19,83,72,58,63,60,56,94,69,44,30.07,29.94,5,1,9,0.00
2013-8-20,87,76,63,65,62,58,91,65,38,30.07,29.96,3,0,8,0.00
2013-8-21,90,76,62,66,64,60,93,68,42,30.12,30.01,3,1,7,0.00
2013-8-22,87,76,65,72,67,63,91,76,52,30.02,29.81,7,1,10,0.00
2013-8-23,81,73,65,69,60,50,91,66,42,30.11,29.80,6,1,10,0.00
2013-8-24,77,67,54,52,48,41,85,55,28,30.32,30.11,7,1,10,0.00
2013-8-25,84,69,52,56,52,47,94,60,27,30.35,30.17,5,1,9,0.00
2013-8-26,82,72,66,67,62,56,83,70,54,30.17,29.86,7,1,14,0.00
2013-8-27,84,74,67,70,67,64,96,81,61,29.88,29.82,4,0,8,0.08
2013-8-28,85,72,62,68,64,61,95,79,54,29.96,29.84,10,1,10,0.00
2013-8-29,67,65,62,64,61,57,92,88,82,30.06,29.93,4,1,9,0.00
2013-8-30,85,72,62,68,63,58,88,76,54,30.02,29.80,4,1,10,0.00
2013-8-31,81,75,69,73,70,67,94,86,75,29.82,29.77,6,1,8,0.00